| time (UTC) | temp C | wind direction | speed KPH | gust KPH | rain 1hr cm | rain 24hr cm | rain mn cm | humidity % | barometer mb |
| 20260904224533 | 16 | 278 | 4.8 | 12.9 | 0.00 | 0.08 | 0.00 | 66 | 1018.7 |
| 20260904223032 | 16 | 222 | 1.6 | 6.4 | 0.00 | 0.08 | 0.00 | 66 | 1018.7 |
| 20260904221529 | 16 | 181 | 1.6 | 6.4 | 0.00 | 0.08 | 0.00 | 68 | 1018.6 |
| 20260904220028 | 16 | 160 | 1.6 | 9.7 | 0.00 | 0.08 | 0.00 | 70 | 1018.5 |
| 20260904214523 | 15 | 150 | 3.2 | 14.5 | 0.00 | 0.08 | 0.00 | 71 | 1018.5 |
| 20260904213020 | 15 | 156 | 3.2 | 9.7 | 0.00 | 0.08 | 0.00 | 74 | 1018.4 |
| 20260904211516 | 15 | 163 | 4.8 | 14.5 | 0.00 | 0.08 | 0.00 | 74 | 1018.3 |
| 20260904210013 | 14 | 190 | 6.4 | 20.9 | 0.00 | 0.08 | 0.00 | 75 | 1018.1 |
| 20260904204511 | 13 | 163 | 4.8 | 16.1 | 0.00 | 0.08 | 0.00 | 77 | 1018.0 |
| 20260904203007 | 13 | 224 | 9.7 | 20.9 | 0.00 | 0.08 | 0.00 | 77 | 1017.8 |
| 20260904201502 | 13 | 198 | 8.0 | 20.9 | 0.00 | 0.08 | 0.00 | 79 | 1017.8 |
| 20260904200004 | 12 | 289 | 6.4 | 14.5 | 0.00 | 0.08 | 0.00 | 80 | 1017.8 |
| 20260904194503 | 12 | 163 | 4.8 | 16.1 | 0.00 | 0.08 | 0.00 | 81 | 1017.9 |
| 20260904193100 | 12 | 230 | 4.8 | 14.5 | 0.00 | 0.08 | 0.00 | 82 | 1017.8 |
| 20260904191558 | 11 | 197 | 6.4 | 14.5 | 0.00 | 0.08 | 0.00 | 83 | 1017.6 |
| 20260904190058 | 11 | 213 | 4.8 | 12.9 | 0.00 | 0.08 | 0.00 | 83 | 1017.5 |
| 20260904184555 | 11 | 284 | 4.8 | 20.9 | 0.00 | 0.08 | 0.00 | 82 | 1017.2 |
| 20260904183111 | 11 | 260 | 6.4 | 24.1 | 0.00 | 0.08 | 0.00 | 82 | 1017.2 |
| 20260904181551 | 11 | 194 | 8.0 | 17.7 | 0.00 | 0.08 | 0.00 | 82 | 1017.3 |
| 20260904180050 | 11 | 245 | 6.4 | 16.1 | 0.00 | 0.08 | 0.00 | 82 | 1017.2 |
| 20260904174548 | 11 | 296 | 6.4 | 17.7 | 0.00 | 0.08 | 0.00 | 82 | 1017.0 |
| 20260904173045 | 11 | 231 | 8.0 | 17.7 | 0.00 | 0.08 | 0.00 | 82 | 1016.9 |
| 20260904171544 | 11 | 219 | 6.4 | 17.7 | 0.00 | 0.08 | 0.00 | 82 | 1016.9 |
| 20260904170041 | 11 | 257 | 6.4 | 16.1 | 0.00 | 0.08 | 0.00 | 83 | 1016.8 |
| 20260904164538 | 11 | 229 | 8.0 | 20.9 | 0.00 | 0.08 | 0.00 | 83 | 1016.7 |
| 20260904163036 | 11 | 263 | 8.0 | 16.1 | 0.00 | 0.08 | 0.00 | 83 | 1016.3 |
| 20260904161533 | 11 | 281 | 6.4 | 17.7 | 0.00 | 0.08 | 0.00 | 82 | 1016.2 |
| 20260904160031 | 12 | 290 | 6.4 | 12.9 | 0.00 | 0.08 | 0.00 | 82 | 1016.1 |
| 20260904154529 | 12 | 277 | 4.8 | 19.3 | 0.00 | 0.08 | 0.00 | 81 | 1015.7 |
| 20260904153027 | 12 | 267 | 6.4 | 19.3 | 0.00 | 0.08 | 0.00 | 81 | 1015.6 |
| 20260904151527 | 12 | 269 | 6.4 | 14.5 | 0.00 | 0.08 | 0.00 | 80 | 1015.7 |
| 20260904150027 | 12 | 253 | 6.4 | 14.5 | 0.00 | 0.08 | 0.00 | 80 | 1015.9 |
| 20260904144524 | 12 | 239 | 6.4 | 19.3 | 0.00 | 0.08 | 0.00 | 80 | 1015.8 |
| 20260904143021 | 12 | 315 | 3.2 | 16.1 | 0.00 | 0.08 | 0.00 | 79 | 1015.9 |
| 20260904141520 | 13 | 205 | 4.8 | 14.5 | 0.00 | 0.08 | 0.00 | 79 | 1015.9 |
| 20260904140020 | 12 | 136 | 3.2 | 8.0 | 0.00 | 0.08 | 0.00 | 80 | 1015.8 |
| 20260904134521 | 12 | 244 | 3.2 | 8.0 | 0.00 | 0.08 | 0.00 | 81 | 1015.6 |
| 20260904133017 | 12 | 242 | 4.8 | 12.9 | 0.00 | 0.08 | 0.00 | 82 | 1015.6 |
| 20260904131515 | 12 | 117 | 0.0 | 3.2 | 0.00 | 0.08 | 0.00 | 82 | 1015.5 |
| 20260904130028 | 12 | 150 | 0.0 | 4.8 | 0.00 | 0.08 | 0.00 | 80 | 1015.2 |
| 20260904124510 | 12 | 132 | 0.0 | 4.8 | 0.00 | 0.08 | 0.00 | 79 | 1015.2 |
| 20260904123016 | 12 | 132 | 0.0 | 8.0 | 0.00 | 0.08 | 0.00 | 79 | 1015.0 |
| 20260904121504 | 13 | 138 | 4.8 | 17.7 | 0.00 | 0.08 | 0.00 | 79 | 1014.8 |
| 20260904120113 | 12 | 290 | 3.2 | 14.5 | 0.00 | 0.08 | 0.00 | 79 | 1014.5 |
| 20260904114502 | 13 | 193 | 1.6 | 20.9 | 0.00 | 0.08 | 0.08 | 79 | 1014.6 |
| 20260904113001 | 12 | 238 | 3.2 | 9.7 | 0.00 | 0.08 | 0.08 | 79 | 1014.4 |
| 20260904111600 | 13 | 205 | 1.6 | 12.9 | 0.00 | 0.08 | 0.08 | 79 | 1014.2 |
| 20260904110059 | 12 | 184 | 3.2 | 17.7 | 0.00 | 0.08 | 0.08 | 79 | 1013.9 |
| 20260904104558 | 12 | 191 | 3.2 | 11.3 | 0.00 | 0.13 | 0.08 | 79 | 1013.9 |
| 20260904103057 | 13 | 214 | 6.4 | 20.9 | 0.00 | 0.13 | 0.08 | 78 | 1014.0 |
| 20260904101555 | 13 | 183 | 6.4 | 19.3 | 0.00 | 0.13 | 0.08 | 78 | 1013.9 |
| 20260904100056 | 13 | 217 | 4.8 | 17.7 | 0.00 | 0.13 | 0.08 | 78 | 1013.9 |
| 20260904094552 | 13 | 326 | 6.4 | 19.3 | 0.00 | 0.13 | 0.08 | 78 | 1013.7 |
| 20260904093051 | 13 | 269 | 4.8 | 19.3 | 0.00 | 0.13 | 0.08 | 78 | 1013.5 |
| 20260904091552 | 13 | 278 | 4.8 | 16.1 | 0.00 | 0.13 | 0.08 | 79 | 1013.3 |
| 20260904090047 | 13 | 277 | 8.0 | 19.3 | 0.00 | 0.13 | 0.08 | 78 | 1013.0 |
| 20260904084544 | 14 | 230 | 6.4 | 25.7 | 0.00 | 0.13 | 0.08 | 79 | 1012.8 |
| 20260904083044 | 14 | 252 | 6.4 | 19.3 | 0.00 | 0.13 | 0.08 | 80 | 1012.2 |
| 20260904081548 | 14 | 207 | 8.0 | 20.9 | 0.00 | 0.13 | 0.08 | 81 | 1011.9 |
| 20260904080043 | 15 | 287 | 11.3 | 25.7 | 0.00 | 0.13 | 0.08 | 83 | 1011.7 |
| 20260904074539 | 15 | 259 | 8.0 | 22.5 | 0.00 | 0.13 | 0.08 | 82 | 1011.4 |
| 20260904073036 | 15 | 238 | 8.0 | 20.9 | 0.00 | 0.13 | 0.08 | 79 | 1011.1 |
| 20260904071535 | 15 | 263 | 12.9 | 38.6 | 0.00 | 0.13 | 0.08 | 80 | 1010.5 |
| 20260904070035 | 15 | 231 | 11.3 | 27.4 | 0.00 | 0.13 | 0.08 | 82 | 1010.5 |
| 20260904064534 | 16 | 250 | 11.3 | 20.9 | 0.00 | 0.13 | 0.08 | 82 | 1010.7 |
| 20260904063038 | 16 | 256 | 11.3 | 24.1 | 0.00 | 0.13 | 0.08 | 83 | 1010.6 |
| 20260904061541 | 16 | 235 | 8.0 | 29.0 | 0.00 | 0.13 | 0.08 | 84 | 1010.5 |
| 20260904060132 | 16 | 305 | 8.0 | 27.4 | 0.00 | 0.13 | 0.08 | 85 | 1010.3 |
| 20260904054536 | 16 | 252 | 8.0 | 16.1 | 0.00 | 0.13 | 0.08 | 88 | 1010.2 |
| 20260904053031 | 16 | 309 | 8.0 | 22.5 | 0.00 | 0.13 | 0.08 | 89 | 1009.9 |
| 20260904051530 | 16 | 316 | 6.4 | 24.1 | 0.00 | 0.13 | 0.08 | 89 | 1010.0 |
| 20260904050029 | 16 | 217 | 9.7 | 22.5 | 0.00 | 0.13 | 0.08 | 87 | 1009.8 |
| 20260904044540 | 16 | 103 | 3.2 | 16.1 | 0.00 | 0.13 | 0.08 | 87 | 1009.7 |
| 20260904043035 | 16 | 127 | 3.2 | 14.5 | 0.00 | 0.13 | 0.08 | 86 | 1009.6 |
| 20260904041527 | 16 | 285 | 6.4 | 14.5 | 0.00 | 0.13 | 0.08 | 85 | 1009.4 |
| 20260904040027 | 16 | 301 | 8.0 | 22.5 | 0.00 | 0.13 | 0.08 | 85 | 1009.7 |
| 20260904034525 | 16 | 277 | 9.7 | 19.3 | 0.00 | 0.13 | 0.08 | 87 | 1009.7 |
| 20260904033024 | 16 | 333 | 9.7 | 22.5 | 0.00 | 0.13 | 0.08 | 86 | 1009.9 |
| 20260904031523 | 16 | 250 | 9.7 | 29.0 | 0.08 | 0.13 | 0.08 | 87 | 1010.0 |
| 20260904030023 | 16 | 318 | 11.3 | 20.9 | 0.08 | 0.13 | 0.08 | 89 | 1010.4 |
| 20260904024519 | 15 | 284 | 3.2 | 24.1 | 0.08 | 0.13 | 0.08 | 91 | 1010.6 |
| 20260904023016 | 15 | 316 | 8.0 | 17.7 | 0.08 | 0.13 | 0.08 | 89 | 1010.8 |
| 20260904021522 | 16 | 64 | 6.4 | 20.9 | 0.00 | 0.05 | 0.00 | 85 | 1010.8 |
| 20260904020015 | 16 | 113 | 4.8 | 16.1 | 0.00 | 0.05 | 0.00 | 82 | 1010.7 |
| 20260904014512 | 16 | 245 | 8.0 | 22.5 | 0.00 | 0.05 | 0.00 | 83 | 1011.1 |
| 20260904013009 | 16 | 221 | 9.7 | 17.7 | 0.00 | 0.05 | 0.00 | 85 | 1011.8 |
| 20260904011507 | 16 | 333 | 6.4 | 20.9 | 0.00 | 0.05 | 0.00 | 85 | 1012.1 |
| 20260904010005 | 16 | 236 | 9.7 | 22.5 | 0.00 | 0.05 | 0.00 | 83 | 1012.5 |
| 20260904004504 | 17 | 304 | 8.0 | 20.9 | 0.00 | 0.05 | 0.00 | 79 | 1012.5 |
| 20260904003003 | 17 | 288 | 6.4 | 19.3 | 0.00 | 0.05 | 0.00 | 75 | 1012.7 |
| 20260904001601 | 17 | 276 | 4.8 | 22.5 | 0.00 | 0.05 | 0.00 | 74 | 1012.9 |
| 20260904000058 | 17 | 344 | 8.0 | 24.1 | 0.00 | 0.05 | 0.00 | 77 | 1013.4 |
| 20260903234558 | 16 | 328 | 6.4 | 16.1 | 0.00 | 0.05 | 0.00 | 78 | 1013.2 |
| 20260903233054 | 16 | 319 | 4.8 | 16.1 | 0.00 | 0.05 | 0.00 | 77 | 1013.6 |
| 20260903231603 | 16 | 295 | 6.4 | 19.3 | 0.00 | 0.05 | 0.00 | 75 | 1014.1 |
| 20260903230053 | 16 | 41 | 9.7 | 19.3 | 0.00 | 0.05 | 0.00 | 74 | 1014.2 |
| 20260903224551 | 17 | 127 | 4.8 | 17.7 | 0.00 | 0.05 | 0.00 | 72 | 1014.2 |